Regional Weather Roundup
Issued by NWS

Home | Current Version | Previous Version | Graphics & Text | Print | Product List | Glossary Off
Versions: 1 2 3 4 5 6 7 8 9 10 11 12 13 14 15 16 17 18 19 20 21 22 23 24 25 26 27 28 29 30 31 32 33 34 35 36 37 38 39 40 41 42 43 44 45 46 47 48 49 50

413
ASUS43 KTOP 290959
RWRKS

WEATHER ROUNDUP FOR KANSAS
NATIONAL WEATHER SERVICE GOODLAND KS
500 AM CDT SAT APR 29 2017

NOTE:  "FAIR" INDICATES FEW OR NO CLOUDS BELOW 12,000 FEET WITH NO
SIGNIFICANT WEATHER AND/OR OBSTRUCTIONS TO VISIBILITY.

KSZ001>006-013>018-027>032-041>047-291100-
NORTHWEST KANSAS

CITY           SKY/WX    TMP DP  RH WIND       PRES   REMARKS
GOODLAND       CLOUDY    33  32  96 N21G29    29.99R FOG     WCI  21
HAYS           LGT RAIN  39  37  92 NE21G30   29.98R WCI  29
HILL CITY      LGT RAIN  38  37  97 NE15G24   30.00R WCI  29
RUSSELL        HVY RAIN  39  37  92 NE21G28   29.95R FOG     WCI  29
$$

KSZ061>065-074>080-084>089-291100-
SOUTHWEST KANSAS

CITY           SKY/WX    TMP DP  RH WIND       PRES   REMARKS
DODGE CITY     RAIN      37  36  96 NE21G35   29.86F FOG     WCI  26
ELKHART          N/A     31  26  82 N13         N/A  WCI  21
GARDEN CITY    LGT SNOW  33  32  96 N16       29.94R FOG     WCI  23
GREAT BEND     LGT RAIN  39  38  96 N16G25    29.97R WCI  30
LIBERAL        MIX PCPN  36  34  92 N20       29.90R FOG     WCI  25
$$

KSZ066>073-081>083-090>101-291100-
SOUTHEAST KANSAS

CITY           SKY/WX    TMP DP  RH WIND       PRES   REMARKS
CHANUTE        TSTM      49  47  93 N17       29.82R FOG
COFFEYVILLE    CLOUDY    55  54  96 N17       29.73R
HUTCHINSON     LGT RAIN  42  40  92 N18G26    29.88R
MEDICINE LODGE   N/A     41  39  93 N26G35    29.85R
NEWTON         LGT RAIN  42  42 100 N22G29    29.84F
PARSONS        TSTM      53  51  93 N20       29.79R FOG
WICHITA INTL   TSTM      45  43  93 N22G31    29.84R
WICHITA JABRA  LGT RAIN  44  44 100 N17G28    29.80S
WICHITA MCCONL TSTM      45  43  93 NE20G29   29.80R
WINFIELD       TSTM      48  47  96 NW17G29   29.79R FOG
$$

KSZ007>012-019>026-033>040-048>060-102>105-291100-
NORTHEAST KANSAS

CITY           SKY/WX    TMP DP  RH WIND       PRES   REMARKS
CONCORDIA      LGT RAIN  41  40  96 NE12      30.04R FOG
EMPORIA        LGT RAIN  44  44 100 NE25      29.75F FOG
LAWRENCE       CLOUDY    46  46 100 NW8       29.92R
MANHATTAN      LGT RAIN  44  42  93 NE13      29.94R
OLATHE IND     CLOUDY    45  45 100 N15       29.89S FOG
OLATHE EXE     CLOUDY    45  45 100 N12       29.87R FOG
SALINA         RAIN      43  41  93 N18       29.95R FOG
TOPEKA BILLARD CLOUDY    46  45  96 NE14      29.89F
TOPEKA FORBES  CLOUDY    47  45  93 NE12      29.88S FOG
$$




USA.gov is the U.S. government's official web portal to all federal, state and local government web resources and services.